www.pogodaiklimat.ru

Архив погоды в Вологде (Вологодская область, Россия)

Время
(UTC), дата
00 24.11
03 24.11
06 24.11
09 24.11
12 24.11
15 24.11
18 24.11
21 24.11
00 25.11
03 25.11
06 25.11
09 25.11
12 25.11
21 25.11
00 26.11
03 26.11
06 26.11
09 26.11
12 26.11
15 26.11
18 26.11
21 26.11
00 27.11
03 27.11
06 27.11
09 27.11
15 27.11
18 27.11
21 27.11
00 28.11
03 28.11
06 28.11
09 28.11
12 28.11
15 28.11
18 28.11
21 28.11
03 29.11
06 29.11
12 29.11
15 29.11
18 29.11
21 29.11
00 30.11
06 30.11
09 30.11
12 30.11
15 30.11
18 30.11
21 30.11
Ветер
(напр.,м/с)
Видим. Явления Облачность Т
(С)
Тd
(С)
f
(%)
Тe
(С)
Тes
(С)
Комфортность P
(гПа)
Po
(гПа)
Тmin
(С)
Tmax
(С)
R
(мм)
R24
(мм)
S
(см)
ЮЗ 2 10 км слаб. снег 10/10 300 м
[Sc]
-4.6 -5.3 95 -9 -9 по сезону 1010.1 993.5
ЮЗ 2 20 км {снег} 10/10 660 м
[Sc]
-3.6 -4.7 92 -8 -8 по сезону 1009.1 992.6 -10.9 0.2 4
ЮЗ 3 20 км {снег} 10/10 480 м
[Sc]
-4.2 -5.4 91 -10 -10 по сезону 1007.5 991.0
Ю 4 20 км 10/10 480 м
[Sc]
-4.2 -6.2 86 -10 -10 по сезону 1005.1 988.6
Ю 5 10 км слаб. снег 10/8 450 м
[Frnb As op]
-4.9 -6.4 89 -12 -12 по сезону 1000.6 984.2
Ю 4 4000 м снег {метель} 10/5 300 м
[Frnb As op]
-4.2 -5.9 88 -11 -11 по сезону 997.1 980.8 -3.4 0.5
ЮЗ 2 10 км слаб. снег {метель} 10/8 420 м
[Frnb As op]
-2.6 -2.7 99 -7 -7 по сезону 995.1 978.9
СЗ 6-12
{12}
10 км слаб. снег 10/0 2000 м
[As op]
-0.4 -2.2 88 -7 -7 по сезону 996.9 980.8
СЗ 5
{11}
20 км позёмок {снег, метель} 10/0 2000 м
[As op]
-2.0 -3.5 89 -9 -9 по сезону 1000.9 984.6
СЗ 6
{10}
10 км слаб. снег {метель} 10/0 2000 м
[Ac As]
-2.7 -5.7 80 -10 -10 по сезону 1004.6 988.2 -4.2 1 7
СЗ 3
{10}
20 км {снег, метель} 10/10 700 м
[Sc]
-3.3 -5.6 84 -9 -9 по сезону 1007.5 991.0
З 1 10 км слаб. снег 10/10 400 м
[Sc]
-2.9 -4.5 89 -5 -5 тепло 1009.0 992.5
Ю 2 20 км {снег} 10/10 360 м
[Sc]
-2.7 -4.4 88 -7 -7 по сезону 1008.2 991.8
Ю 4 20 км {снег} 10/10 360 м
[Sc]
+0.9 +0.4 96 -5 -5 тепло 1001.0 984.9
Ю 4 10 км слаб. снег 10/10 360 м
[Sc]
+1.4 +0.7 95 -4 -4 тепло 999.4 983.4
Ю 4 20 км {снег} 10/10 480 м
[Sc]
+1.3 +0.4 94 -4 -4 тепло 997.7 981.7 -2.7 0.0 4
Ю 5 20 км {снег} 10/10 500 м
[Sc]
+1.5 -0.6 86 -4 -4 тепло 996.7 980.7
Ю 5
{10}
10 км слаб. снег 10/10 450 м
[Sc]
+1.3 -0.6 87 -4 -4 тепло 996.5 980.5
ЮЗ 4-11
{11}
10 км слаб. снег 10/10 540 м
[Sc]
+1.1 -0.7 88 -4 -4 тепло 996.3 980.3
ЮЗ 3
{11}
10 км слаб. снег 10/10 480 м
[Sc]
+1.2 -0.7 87 -3 -3 тепло 997.7 981.7 +1.5 0.3
ЮЗ 3 10 км слаб. дождь {снег} 10/10 300 м
[Frnb Ns]
+1.2 -0.3 90 -3 -3 тепло 1000.0 983.9
ЮЗ 3 20 км в посл. час снег {дождь} 10/10 400 м
[Sc]
+1.4 -0.2 89 -3 -3 тепло 1002.0 985.9
ЮЗ 3 10 км слаб. дождь {снег} 10/10 360 м
[Sc]
+1.4 +0.1 91 -3 -3 тепло 1003.9 987.8
ЮЗ 2 20 км {дождь} 9/9 600 м
[Sc]
+1.0 -0.3 91 -3 -3 тепло 1005.9 989.7 +0.9 0.0 3
Ю 2 20 км {дождь} 10/10 960 м
[Sc]
+0.9 -0.2 92 -3 -3 тепло 1007.7 991.5 -0.7
Ю 2 10 км слаб. снег 10/10 420 м
[Sc]
+1.1 -0.8 87 -2 -2 тепло 1008.2 992.0
ЮВ 3 10 км слаб. снег 10/8 270 м
[Frnb As op]
+0.1 +0.1 100 -5 -5 по сезону 1004.8 988.6 +1.1 3
ЮВ 3 10 км слаб. снег 10/8 300 м
[Frnb As op]
+0.2 +0.2 100 -5 -5 по сезону 1002.4 986.3
ЮВ 3 2000 м снег 10/10 270 м
[Frnb Ns]
0.0 0.0 100 -5 -5 по сезону 1000.1 984.0
ЮВ 3 10 км слаб. снег 10/10 240 м
[Frnb Ns]
-0.1 -0.1 100 -5 -5 по сезону 998.4 982.3
ЮВ 2 10 км слаб. снег 10/10 300 м
[Frnb Ns]
0.0 0.0 100 -4 -4 по сезону 997.5 981.4 -0.2 6 10
ЮВ 2 10 км слаб. снег 10/10 300 м
[Frnb Ns]
+0.1 +0.1 100 -4 -4 по сезону 997.6 981.5
ЮВ 2 10 км слаб. снег {дождь} 10/10 270 м
[Frnb Ns]
+0.4 +0.4 100 -3 -3 тепло 997.7 981.6
Ю 3 10 км слаб. дождь {снег} 10/10 330 м
[Frnb Ns]
+1.5 +1.5 100 -3 -3 по сезону 998.3 982.3
ЮЗ 3 10 км слаб. снег {дождь} 10/10 420 м
[Sc]
+1.0 +0.7 98 -4 -4 по сезону 1000.5 984.4 +1.6 1
З 2 10 км слаб. снег {дождь} 10/10 360 м
[Sc]
+0.6 +0.2 97 -3 -3 тепло 1003.1 987.0
З 3 20 км {снег, дождь} 10/10 660 м
[Sc]
-0.3 -1.8 90 -5 -5 по сезону 1006.3 990.0
С 2 20 км 10/10 800 м
[Sc]
-5.4 -6.6 91 -10 -10 по сезону 1010.3 993.7 -5.5 0.4 8
С 3 20 км 10/10 1000 м
[Sc]
-7.1 -8.5 90 -13 -13 прохладно 1011.6 994.8 -7.1
СВ 3 10 км слаб. снег 10/9 400 м
[Frnb As op]
-5.7 -6.8 92 -11 -11 прохладно 1008.5 991.9
В 3 10 км слаб. крупа {ливн. снег, снег} 10/10 480 м
[Cb cap]
-4.2 -5.0 94 -10 -10 по сезону 1005.8 989.3 -4.2 0.5
В 4 10 км слаб. снег {ливн. снег} 10/10 270 м
[Sc]
-3.8 -4.3 96 -10 -10 по сезону 1002.3 985.9
В 3 20 км {снег} 10/10 240 м
[Sc]
-2.6 -2.6 100 -8 -8 по сезону 997.4 981.1
В 4 2000 м дымка {снег} 10/10 30 м
[St]
-1.7 -1.7 100 -8 -8 по сезону 991.4 975.3
В 3 2000 м снег {дождь} [диам. гололёда 2 мм] 10/10 400 м
[Frnb Ns]
-0.3 -0.3 100 -5 -5 тепло 976.5 960.7
В 3 1000 м сильн. снег {дождь} [диам. гололёда 3 мм] 10/10 210 м
[Frnb Ns]
0.0 0.0 100 -5 -5 тепло 963.4 953.8
ЮВ 3 10 км слаб. дождь {снег} 9/9 300 м
[Sc]
+1.6 +1.6 100 -3 -3 тепло 967.0 951.5
Ю 4
{11}
20 км в посл. час дождь 9/9 720 м
[Sc]
+1.8 +1.8 100 -4 -4 тепло 967.5 952.0 +2.7 8
ЮВ 3
{10}
20 км {снег, дождь} 10/10 960 м
[Sc]
+1.0 -0.5 90 -4 -4 тепло 967.5 952.0
ЮВ 2 10 км слаб. снег 10/10 360 м
[Sc]
-0.2 -0.2 100 -4 -4 тепло 968.0 952.4
Местоположение метеостанции Вологда (Вологодская область, Россия): широта 59.32 долгота 39.93 высота над уровнем моря 130 м.
В архиве по умолчанию представлена погода в Вологде за последнюю неделю. Архивные данные за месяц целиком и за предыдущие месяцы, начиная с января 2011 года, Вы можете получить, выбрав интересующий диапазон дат из раскрывающегося списка и нажав кнопку "Найти!".
*Определитесь, кто Вы:
Внимание! Время в таблицах - всемирное. Для получения местного времени необходимо прибавить поправку, которая равна 3 ч.
Смотрите также архив погоды в соседних городах и на ближайших метеорологических станциях:
Партнеры нашего сайта:      
Пояснения к столбцам:
  • Ветер - указаны скорость ветра в м/с - средняя за 10 мин, порывы в срок и между сроками (в фигурных скобках) и направление, откуда дует ветер: С - северный,
  • СВ - северо-восточный, В - восточный, ЮВ - юго-восточный, Ю - южный, ЮЗ - юго-западный, З - западный, СЗ - северо-западный.
  • Видимость - горизонтальная дальность видимости в метрах или километрах. При видимости от 1 до 10 км при отсутствии осадков обычно наблюдается дымка, при ухудшении видимости до 1 км и менее - туман. В сухую погоду видимость может ухудшаться дымом, пылью или мглою.
  • Явления - указаны атмосферные явления, наблюдавшиеся в срок или в последний час перед сроком; фигурными скобками обозначены явления, наблюдавшиеся между сроками (за 1-3 часа до срока); квадратными скобками обозначены град или гололедные отложения с указанием их диаметра в мм.
  • Облачность - указаны через наклонную черту общая и нижняя облачность в баллах и высота нижней границы облаков в метрах; квадратными скобками обозначены формы облаков: Ci - перистые, Cs - перисто-слоистые, Cc - перисто-кучевые, Ac - высококучевые, As - высокослоистые, Sc - слоисто-кучевые, Ns - слоисто-дождевые, Cu - кучевые, Cb - кучево-дождевые. Подробнее классификацию облаков см. в Атласе облаков (PDF).
  • T - Температура воздуха - температура, измеренная на высоте 2 м над землей.
  • Td - Температура точки росы - температура, при понижении до которой содержащийся в воздухе водяной пар достигнет насыщения.
  • f - Относительная влажность воздуха - влажноcть воздуха, измеренная на высоте 2 м над землей.
  • Te - Эффективная температура - температура, которую ощущает одетый по сезону человек в тени. Характеристика душности погоды. При расчете учитывается влияние влажности воздуха и скорости ветра на теплоощущения человека.
  • Tes - Эффективная температура на солнце - температура, которую ощущает человек, с поправкой на солнечный нагрев. Характеристика знойности погоды. Зависит от высоты солнца над горизонтом, облачности и скорости ветра. Ночью, в пасмурную погоду, а также при ветре 12 м/с и более поправка равна нулю.
  • P - Атмосферное давление - приведенное к уровню моря атмосферное давление.
  • Po - Атмосферное давление - измеренное на уровне метеостанции атмосферное давление.
  • Tmin - Минимальная температура - минимум температуры воздуха на высоте 2 м над землей.
  • Tmax - Максимальная температура - максимум температуры воздуха на высоте 2 м над землей.
  • R - Количество осадков - Количество выпавших осадков за период времени, мм. При наведении курсора мыши на число - период времени, за который выпало указанное количество осадков.
  • R24 - Количество осадков - Количество выпавших осадков за 24 часа, мм.
  • S - Снежный покров - Высота снежного покрова, см. При наведении курсора мыши на число - состояние снежного покрова и степень покрытия местности в баллах.